Location: Eitze
(52.9840°N, 9.6894°E)
Time: 00:44:43
(UTC+00:00)

Cosmos 1500 Rocket - Pass Details

Date: 19 May 2025
Orbit: 598 x 623 km, 82.5° (Epoch: 15 June)

Event Time Altitude Azimuth Distance (km) Brightness Sun altitude
Rises 22:45:08 0° 347° (NNW) 2,879 8.8 -16.7°
Reaches altitude 10° 22:47:21 10° 346° (NNW) 1,974 7.5 -16.7°
Maximum altitude 22:51:43 75° 262° (W) 640 3.5 -16.8°
Enters shadow 22:53:37 33° 183° (S) 1,040 4.1 -16.8°
